Location: Eckley Miners' Village
(40.9930°N, 75.8630°W)
Time: 00:58:38
(UTC-04:00)

Vanguard 1 Rocket - Pass Details

Date: 09 March 2026
Orbit: 654 x 4213 km, 34.3° (Epoch: 18 April)

Event Time Altitude Azimuth Distance (km) Brightness Sun altitude
Rises 11:18:54 0° 255° (WSW) 2,970 9.9 37.6°
Reaches altitude 10° 11:21:03 10° 248° (WSW) 2,118 9.3 37.9°
Maximum altitude 11:25:26 43° 176° (S) 1,130 9.4 38.3°
Drops below altitude 10° 11:31:49 10° 106° (ESE) 3,079 10.9 39.0°
Sets 11:35:35 0° 101° (E) 4,530 11.5 39.4°
